SKW5363 KLAX-KBOI

Flight info

Callsign SKW5363
Flight time 1h 35m
Altitude 38000
Route LADYJ4 CSTRO RYANN/N0442F370 PRNCS SADYL4
Aircraft CRJ7/M-SDFGIRWY/S

Departure

Time 2026-04-24 07:38
Airport Los Angeles International Airport (KLAX)

Arrival

Time 2026-04-24 09:13
Airport Boise Air Terminal/Gowen Field (KBOI)
Time Latitude Longitude Altitude Speed Heading
2026-04-24 07:12 33.94791 -118.40176 124 ft 0 kts 141°
2026-04-24 07:26 33.94790 -118.40176 124 ft 0 kts 141°
2026-04-24 07:28 33.94792 -118.40178 124 ft 3 kts 142°
2026-04-24 07:28 33.94814 -118.40191 121 ft 2 kts 152°
2026-04-24 07:29 33.94829 -118.40210 120 ft 4 kts 101°
2026-04-24 07:29 33.94827 -118.40242 119 ft 4 kts 79°
2026-04-24 07:29 33.94825 -118.40250 120 ft 1 kts 80°
2026-04-24 07:33 33.94833 -118.40178 124 ft 15 kts 83°
2026-04-24 07:33 33.94860 -118.40083 123 ft 5 kts 25°
2026-04-24 07:33 33.94913 -118.40056 121 ft 14 kts 52°
2026-04-24 07:33 33.94926 -118.40008 124 ft 0 kts 82°
2026-04-24 07:34 33.94927 -118.40002 124 ft 1 kts 81°
2026-04-24 07:34 33.94931 -118.39969 124 ft 8 kts 76°
2026-04-24 07:34 33.94955 -118.39925 121 ft 0 kts 32°
2026-04-24 07:36 33.94986 -118.39914 122 ft 12 kts
2026-04-24 07:36 33.95038 -118.39987 122 ft 13 kts 271°
2026-04-24 07:36 33.95033 -118.40043 121 ft 0 kts 262°
2026-04-24 07:37 33.95004 -118.40320 122 ft 71 kts 263°
2026-04-24 07:37 33.94915 -118.41173 132 ft 127 kts 262°
2026-04-24 07:37 33.94853 -118.42296 332 ft 144 kts 270°
2026-04-24 07:37 33.95269 -118.43401 658 ft 153 kts 315°
2026-04-24 07:38 33.95947 -118.44421 1024 ft 162 kts 285°
2026-04-24 07:38 33.95863 -118.45789 1339 ft 172 kts 243°
2026-04-24 07:38 33.94965 -118.46706 1685 ft 179 kts 206°
2026-04-24 07:38 33.94099 -118.47799 1955 ft 191 kts 249°
2026-04-24 07:39 33.94030 -118.49445 2280 ft 199 kts 272°
2026-04-24 07:39 33.94049 -118.51097 2760 ft 203 kts 270°
2026-04-24 07:39 33.94028 -118.52925 3313 ft 233 kts 269°
2026-04-24 07:39 33.93944 -118.54998 3889 ft 262 kts 266°
2026-04-24 07:40 33.93773 -118.57305 4490 ft 290 kts 264°
2026-04-24 07:40 33.93591 -118.59525 5019 ft 314 kts 266°
2026-04-24 07:40 33.93897 -118.62205 5620 ft 339 kts 292°
2026-04-24 07:40 33.95294 -118.64598 6249 ft 363 kts 315°
2026-04-24 07:41 33.97251 -118.66475 7551 ft 360 kts 325°
2026-04-24 07:41 33.99537 -118.67718 8653 ft 367 kts 347°
2026-04-24 07:41 34.02127 -118.67851 9728 ft 376 kts
2026-04-24 07:41 34.04761 -118.67589 10669 ft 382 kts
2026-04-24 07:42 34.07392 -118.67291 11579 ft 387 kts
2026-04-24 07:42 34.10087 -118.66810 12474 ft 395 kts
2026-04-24 07:42 34.12788 -118.66102 13355 ft 401 kts
2026-04-24 07:42 34.15539 -118.65344 14176 ft 406 kts
2026-04-24 07:43 34.18278 -118.64645 14934 ft 411 kts
2026-04-24 07:43 34.21096 -118.63990 15657 ft 416 kts
2026-04-24 07:43 34.24009 -118.63354 16376 ft 419 kts
2026-04-24 07:43 34.26860 -118.63526 17014 ft 415 kts 346°
2026-04-24 07:44 34.29685 -118.64252 17717 ft 416 kts 342°
2026-04-24 07:44 34.32521 -118.65047 18358 ft 421 kts 342°
2026-04-24 07:44 34.35395 -118.65812 18946 ft 425 kts 343°
2026-04-24 07:44 34.38325 -118.66495 19514 ft 430 kts 345°
2026-04-24 07:45 34.41277 -118.67161 20067 ft 433 kts 345°
2026-04-24 07:45 34.44268 -118.67797 20607 ft 437 kts 346°
2026-04-24 07:45 34.47281 -118.68373 21133 ft 441 kts 346°
2026-04-24 07:45 34.50322 -118.68961 21627 ft 444 kts 346°
2026-04-24 07:46 34.53403 -118.69567 22113 ft 448 kts 346°
2026-04-24 07:46 34.56457 -118.70167 22584 ft 451 kts 346°
2026-04-24 07:46 34.59562 -118.70773 23048 ft 455 kts 346°
2026-04-24 07:46 34.62708 -118.71385 23507 ft 458 kts 346°
2026-04-24 07:47 34.65859 -118.72006 23884 ft 461 kts 346°
2026-04-24 07:47 34.69037 -118.72629 24257 ft 463 kts 346°
2026-04-24 07:47 34.72159 -118.73515 24597 ft 458 kts 335°
2026-04-24 07:47 34.75070 -118.75071 24955 ft 456 kts 328°
2026-04-24 07:48 34.77833 -118.76967 25296 ft 456 kts 324°
2026-04-24 07:48 34.80557 -118.78970 25620 ft 458 kts 324°
2026-04-24 07:48 34.83290 -118.80965 25947 ft 460 kts 325°
2026-04-24 07:48 34.86084 -118.82904 26261 ft 463 kts 326°
2026-04-24 07:49 34.88893 -118.84816 26555 ft 464 kts 326°
2026-04-24 07:49 34.91717 -118.86764 26832 ft 467 kts 326°
2026-04-24 07:49 34.94555 -118.88718 27145 ft 468 kts 326°
2026-04-24 07:49 34.97395 -118.90678 27394 ft 470 kts 326°
2026-04-24 07:50 35.00241 -118.92641 27626 ft 471 kts 326°
2026-04-24 07:50 35.03107 -118.94620 27845 ft 473 kts 326°
2026-04-24 07:50 35.05939 -118.96573 28048 ft 475 kts 326°
2026-04-24 07:50 35.08810 -118.98561 28249 ft 476 kts 326°
2026-04-24 07:51 35.11696 -119.00558 28425 ft 477 kts 326°
2026-04-24 07:51 35.14590 -119.02564 28595 ft 479 kts 326°
2026-04-24 07:51 35.17488 -119.04573 28749 ft 480 kts 326°
2026-04-24 07:51 35.20404 -119.06596 28897 ft 481 kts 326°
2026-04-24 07:52 35.23321 -119.08621 29033 ft 482 kts 326°
2026-04-24 07:52 35.26247 -119.10656 29173 ft 483 kts 326°
2026-04-24 07:52 35.29176 -119.12693 29293 ft 484 kts 326°
2026-04-24 07:52 35.32111 -119.14735 29400 ft 485 kts 326°
2026-04-24 07:53 35.35045 -119.16781 29501 ft 486 kts 326°
2026-04-24 07:53 35.37986 -119.18833 29611 ft 487 kts 326°
2026-04-24 07:53 35.42985 -119.22045 29719 ft 495 kts 337°
2026-04-24 07:54 35.51012 -119.23765 29885 ft 505 kts 352°
2026-04-24 07:54 35.58085 -119.23761 29993 ft 510 kts 357°
2026-04-24 07:55 35.65153 -119.23696 30074 ft 509 kts 355°
2026-04-24 07:55 35.72248 -119.23831 30151 ft 510 kts 355°
2026-04-24 07:56 35.79346 -119.23936 30200 ft 510 kts 355°
2026-04-24 07:56 35.86452 -119.23999 30234 ft 510 kts 355°
2026-04-24 07:57 35.93557 -119.24081 30270 ft 510 kts 355°
2026-04-24 07:57 36.00665 -119.24164 30288 ft 510 kts 355°
2026-04-24 07:58 36.07730 -119.24242 30299 ft 510 kts 355°
2026-04-24 07:58 36.14836 -119.24322 30303 ft 511 kts 355°
2026-04-24 07:59 36.21945 -119.24405 30306 ft 511 kts 355°
2026-04-24 07:59 36.29079 -119.24485 30310 ft 511 kts 355°
2026-04-24 08:00 36.36155 -119.24565 30315 ft 511 kts 355°
2026-04-24 08:00 36.43272 -119.24647 30322 ft 511 kts 355°
2026-04-24 08:01 36.50377 -119.24727 30348 ft 510 kts 355°
2026-04-24 08:01 36.57490 -119.24808 30366 ft 510 kts 355°
2026-04-24 08:02 36.64578 -119.24888 30380 ft 509 kts 355°
2026-04-24 08:02 36.71657 -119.24969 30391 ft 508 kts 355°
2026-04-24 08:03 36.78729 -119.25049 30405 ft 507 kts 355°
2026-04-24 08:03 36.85748 -119.25130 30413 ft 506 kts 355°
2026-04-24 08:04 36.91642 -119.25198 30431 ft 506 kts 355°
2026-04-24 08:04 36.98669 -119.25280 30439 ft 505 kts 355°
2026-04-24 08:05 37.05679 -119.25359 30448 ft 505 kts 354°
2026-04-24 08:05 37.12691 -119.25442 30470 ft 504 kts 354°
2026-04-24 08:06 37.19711 -119.25525 30493 ft 504 kts 354°
2026-04-24 08:06 37.26720 -119.25606 30504 ft 503 kts 354°
2026-04-24 08:07 37.33735 -119.25686 30513 ft 503 kts 354°
2026-04-24 08:07 37.40727 -119.25767 30547 ft 503 kts 354°
2026-04-24 08:08 37.47728 -119.25854 30548 ft 503 kts 354°
2026-04-24 08:09 37.58214 -119.25971 30575 ft 502 kts 354°
2026-04-24 08:09 37.65206 -119.26059 30581 ft 503 kts 354°
2026-04-24 08:10 37.72210 -119.26140 30586 ft 503 kts 355°
2026-04-24 08:10 37.79222 -119.26226 30582 ft 504 kts 355°
2026-04-24 08:11 37.86210 -119.26303 30619 ft 505 kts 355°
2026-04-24 08:11 37.93238 -119.26390 30628 ft 504 kts 355°
2026-04-24 08:11 37.96715 -119.26426 31048 ft 495 kts 354°
2026-04-24 08:12 38.00138 -119.26458 31476 ft 488 kts 354°
2026-04-24 08:12 38.03541 -119.26500 31617 ft 488 kts 354°
2026-04-24 08:12 38.06935 -119.26549 31670 ft 489 kts 354°
2026-04-24 08:13 38.13765 -119.26633 31779 ft 491 kts 354°
2026-04-24 08:13 38.17187 -119.26671 31880 ft 490 kts 354°
2026-04-24 08:13 38.20585 -119.26708 31989 ft 489 kts 354°
2026-04-24 08:14 38.27404 -119.26791 32178 ft 488 kts 353°
2026-04-24 08:14 38.34196 -119.26876 32358 ft 488 kts 353°
2026-04-24 08:15 38.40977 -119.26957 32512 ft 487 kts 353°
2026-04-24 08:15 38.47707 -119.27035 32644 ft 486 kts 353°
2026-04-24 08:16 38.54466 -119.27118 32794 ft 485 kts 353°
2026-04-24 08:16 38.61230 -119.27199 32949 ft 484 kts 353°
2026-04-24 08:17 38.67971 -119.27280 33098 ft 484 kts 353°
2026-04-24 08:17 38.74693 -119.27362 33239 ft 483 kts 353°
2026-04-24 08:18 38.81416 -119.27445 33372 ft 482 kts 353°
2026-04-24 08:18 38.88130 -119.27526 33480 ft 482 kts 353°
2026-04-24 08:19 38.94852 -119.27607 33578 ft 482 kts 353°
2026-04-24 08:19 39.01508 -119.27690 33702 ft 481 kts 353°
2026-04-24 08:20 39.08199 -119.27770 33835 ft 480 kts 353°
2026-04-24 08:20 39.14879 -119.27852 33944 ft 479 kts 353°
2026-04-24 08:21 39.21573 -119.27602 33994 ft 488 kts
2026-04-24 08:21 39.28286 -119.25833 34092 ft 492 kts
2026-04-24 08:22 39.34859 -119.23130 34141 ft 499 kts 14°
2026-04-24 08:22 39.41329 -119.20093 34231 ft 496 kts 12°
2026-04-24 08:23 39.47871 -119.17265 34276 ft 496 kts 12°
2026-04-24 08:23 39.54419 -119.14390 34354 ft 495 kts 12°
2026-04-24 08:24 39.60945 -119.11529 34403 ft 495 kts 12°
2026-04-24 08:24 39.67457 -119.08668 34454 ft 494 kts 12°
2026-04-24 08:25 39.73969 -119.05803 34549 ft 493 kts 12°
2026-04-24 08:25 39.80474 -119.02931 34582 ft 493 kts 12°
2026-04-24 08:26 39.86961 -119.00062 34677 ft 492 kts 12°
2026-04-24 08:26 39.93399 -118.97213 34725 ft 492 kts 12°
2026-04-24 08:27 39.99885 -118.94333 34757 ft 491 kts 12°
2026-04-24 08:27 40.06369 -118.91451 34769 ft 492 kts 12°
2026-04-24 08:28 40.12816 -118.88579 34812 ft 492 kts 12°
2026-04-24 08:28 40.19267 -118.85698 34976 ft 489 kts 12°
2026-04-24 08:29 40.25707 -118.82820 35024 ft 489 kts 13°
2026-04-24 08:29 40.32155 -118.79927 35026 ft 490 kts 13°
2026-04-24 08:30 40.38608 -118.77030 35022 ft 490 kts 13°
2026-04-24 08:30 40.45081 -118.74119 35024 ft 490 kts 13°
2026-04-24 08:31 40.51538 -118.71207 35009 ft 490 kts 13°
2026-04-24 08:31 40.57952 -118.68306 35009 ft 490 kts 13°
2026-04-24 08:32 40.64399 -118.65386 35006 ft 490 kts 13°
2026-04-24 08:32 40.70842 -118.62467 35008 ft 490 kts 13°
2026-04-24 08:33 40.77289 -118.59534 35003 ft 489 kts 13°
2026-04-24 08:33 40.83735 -118.56596 35006 ft 489 kts 14°
2026-04-24 08:34 40.90164 -118.53661 35005 ft 489 kts 14°
2026-04-24 08:34 40.96569 -118.50731 35000 ft 488 kts 14°
2026-04-24 08:35 41.02985 -118.47791 34997 ft 488 kts 15°
2026-04-24 08:35 41.09408 -118.44839 34997 ft 488 kts 15°
2026-04-24 08:36 41.15780 -118.41904 34998 ft 487 kts 15°
2026-04-24 08:36 41.22232 -118.38927 34997 ft 486 kts 15°
2026-04-24 08:37 41.28582 -118.35993 35002 ft 486 kts 15°
2026-04-24 08:37 41.34967 -118.33035 34992 ft 485 kts 15°
2026-04-24 08:38 41.41344 -118.30076 34990 ft 485 kts 15°
2026-04-24 08:38 41.47712 -118.27113 34995 ft 484 kts 15°
2026-04-24 08:39 41.54067 -118.24151 34995 ft 483 kts 15°
2026-04-24 08:39 41.60405 -118.21193 34989 ft 482 kts 15°
2026-04-24 08:40 41.66729 -118.18232 34979 ft 481 kts 15°
2026-04-24 08:40 41.73039 -118.15273 34972 ft 480 kts 15°
2026-04-24 08:41 41.79296 -118.12334 34970 ft 479 kts 15°
2026-04-24 08:41 41.85594 -118.09366 34953 ft 479 kts 15°
2026-04-24 08:42 41.91886 -118.06400 34946 ft 479 kts 15°
2026-04-24 08:42 41.98172 -118.03425 34943 ft 479 kts 15°
2026-04-24 08:43 42.04466 -118.00444 34933 ft 479 kts 15°
2026-04-24 08:43 42.10753 -117.97457 34821 ft 477 kts 15°
2026-04-24 08:43 42.13874 -117.95972 33417 ft 476 kts 15°
2026-04-24 08:44 42.17013 -117.94477 31716 ft 481 kts 15°
2026-04-24 08:44 42.20182 -117.92966 30284 ft 482 kts 15°
2026-04-24 08:44 42.23325 -117.91469 29071 ft 476 kts 15°
2026-04-24 08:44 42.26413 -117.89998 27964 ft 468 kts 15°
2026-04-24 08:45 42.29473 -117.88531 26964 ft 460 kts 15°
2026-04-24 08:45 42.32426 -117.87116 26050 ft 452 kts 15°
2026-04-24 08:45 42.35369 -117.85715 25191 ft 444 kts 15°
2026-04-24 08:45 42.38255 -117.84325 24400 ft 437 kts 15°
2026-04-24 08:46 42.41104 -117.82958 23612 ft 431 kts 14°
2026-04-24 08:46 42.43815 -117.81235 22634 ft 436 kts 30°
2026-04-24 08:46 42.46128 -117.78567 21768 ft 437 kts 39°
2026-04-24 08:46 42.48166 -117.75545 21338 ft 428 kts 46°
2026-04-24 08:47 42.49965 -117.72435 21149 ft 411 kts 47°
2026-04-24 08:47 42.51663 -117.69421 21056 ft 393 kts 47°
2026-04-24 08:47 42.53307 -117.66562 21010 ft 375 kts 45°
2026-04-24 08:47 42.54919 -117.63878 20989 ft 359 kts 44°
2026-04-24 08:48 42.55963 -117.62171 20979 ft 349 kts 44°
2026-04-24 08:48 42.57478 -117.59673 20973 ft 336 kts 44°
2026-04-24 08:48 42.58938 -117.57268 20961 ft 324 kts 44°
2026-04-24 08:48 42.60340 -117.54942 20950 ft 312 kts 43°
2026-04-24 08:49 42.61684 -117.52708 20949 ft 301 kts 43°
2026-04-24 08:49 42.62985 -117.50546 20946 ft 290 kts 43°
2026-04-24 08:49 42.64244 -117.48453 20947 ft 280 kts 42°
2026-04-24 08:49 42.65486 -117.46393 20960 ft 291 kts 42°
2026-04-24 08:50 42.66825 -117.44197 20980 ft 314 kts 43°
2026-04-24 08:50 42.68277 -117.41846 20990 ft 337 kts 43°
2026-04-24 08:50 42.69823 -117.39302 21008 ft 359 kts 44°
2026-04-24 08:50 42.71459 -117.36593 21016 ft 382 kts 45°
2026-04-24 08:51 42.73162 -117.33745 21032 ft 402 kts 45°
2026-04-24 08:51 42.74972 -117.30711 21037 ft 422 kts 45°
2026-04-24 08:51 42.76866 -117.27535 21041 ft 441 kts 45°
2026-04-24 08:51 42.78844 -117.24228 21093 ft 458 kts 46°
2026-04-24 08:52 42.80853 -117.20763 21109 ft 474 kts 46°
2026-04-24 08:52 42.82920 -117.17176 21139 ft 482 kts 46°
2026-04-24 08:52 42.84951 -117.13641 20370 ft 468 kts 46°
2026-04-24 08:52 42.86963 -117.10208 19575 ft 458 kts 46°
2026-04-24 08:53 42.88943 -117.06835 18794 ft 449 kts 45°
2026-04-24 08:53 42.90884 -117.03533 17901 ft 444 kts 46°
2026-04-24 08:53 42.92790 -117.00278 16996 ft 438 kts 46°
2026-04-24 08:53 42.95021 -116.96467 15983 ft 431 kts 46°
2026-04-24 08:54 42.96880 -116.93289 15150 ft 426 kts 46°
2026-04-24 08:54 42.98711 -116.90152 14529 ft 417 kts 46°
2026-04-24 08:54 43.00481 -116.87116 14241 ft 399 kts 46°
2026-04-24 08:54 43.02174 -116.84207 14120 ft 381 kts 46°
2026-04-24 08:55 43.03788 -116.81440 14051 ft 364 kts 45°
2026-04-24 08:55 43.05338 -116.78806 14006 ft 347 kts 44°
2026-04-24 08:55 43.06823 -116.76301 13991 ft 333 kts 44°
2026-04-24 08:55 43.08272 -116.73862 13977 ft 332 kts 44°
2026-04-24 08:56 43.09708 -116.71434 13656 ft 329 kts 44°
2026-04-24 08:56 43.11156 -116.68995 13298 ft 327 kts 45°
2026-04-24 08:56 43.12575 -116.66578 12920 ft 325 kts 45°
2026-04-24 08:56 43.13992 -116.64172 12581 ft 323 kts 45°
2026-04-24 08:57 43.15399 -116.61783 12256 ft 321 kts 45°
2026-04-24 08:57 43.16797 -116.59399 11901 ft 320 kts 45°
2026-04-24 08:57 43.18177 -116.57069 11574 ft 318 kts 44°
2026-04-24 08:57 43.19613 -116.54793 11234 ft 315 kts 43°
2026-04-24 08:58 43.21078 -116.52571 10903 ft 313 kts 42°
2026-04-24 08:58 43.22528 -116.50361 10577 ft 311 kts 43°
2026-04-24 08:58 43.23961 -116.48157 10336 ft 307 kts 43°
2026-04-24 08:58 43.25358 -116.45997 10225 ft 297 kts 43°
2026-04-24 08:59 43.26709 -116.43913 10171 ft 287 kts 43°
2026-04-24 08:59 43.28015 -116.41912 10144 ft 277 kts 43°
2026-04-24 08:59 43.29270 -116.39974 10133 ft 266 kts 43°
2026-04-24 08:59 43.30351 -116.38311 10118 ft 258 kts 42°
2026-04-24 09:00 43.31526 -116.36497 10117 ft 249 kts 42°
2026-04-24 09:00 43.32654 -116.34757 10113 ft 240 kts 41°
2026-04-24 09:00 43.33747 -116.33070 10112 ft 231 kts 41°
2026-04-24 09:00 43.34797 -116.31448 10114 ft 223 kts 41°
2026-04-24 09:01 43.35809 -116.29888 10112 ft 215 kts 41°
2026-04-24 09:01 43.36791 -116.28371 9998 ft 213 kts 40°
2026-04-24 09:01 43.37763 -116.26879 9858 ft 212 kts 40°
2026-04-24 09:01 43.38744 -116.25360 9708 ft 212 kts 41°
2026-04-24 09:02 43.39713 -116.23847 9561 ft 210 kts 41°
2026-04-24 09:02 43.40678 -116.22346 9409 ft 209 kts 41°
2026-04-24 09:02 43.41563 -116.20754 9214 ft 216 kts 62°
2026-04-24 09:02 43.41794 -116.18693 9036 ft 221 kts 87°
2026-04-24 09:03 43.41778 -116.16575 8868 ft 220 kts 87°
2026-04-24 09:03 43.41805 -116.14481 8706 ft 218 kts 83°
2026-04-24 09:03 43.41929 -116.12405 8551 ft 216 kts 79°
2026-04-24 09:03 43.42104 -116.10367 8411 ft 214 kts 78°
2026-04-24 09:04 43.42286 -116.08335 8241 ft 213 kts 78°
2026-04-24 09:04 43.42467 -116.06310 8077 ft 212 kts 78°
2026-04-24 09:04 43.42635 -116.04300 7911 ft 211 kts 79°
2026-04-24 09:04 43.42791 -116.02302 7762 ft 210 kts 79°
2026-04-24 09:05 43.42941 -116.00306 7589 ft 209 kts 79°
2026-04-24 09:05 43.43092 -115.98321 7424 ft 208 kts 79°
2026-04-24 09:05 43.43241 -115.96354 7265 ft 206 kts 79°
2026-04-24 09:05 43.43382 -115.94413 7087 ft 205 kts 79°
2026-04-24 09:06 43.43528 -115.92472 6907 ft 204 kts 79°
2026-04-24 09:06 43.43710 -115.90550 6732 ft 200 kts 68°
2026-04-24 09:06 43.44472 -115.89125 6445 ft 175 kts 21°
2026-04-24 09:06 43.45534 -115.89081 5767 ft 152 kts 330°
2026-04-24 09:07 43.46100 -115.90295 4864 ft 159 kts 279°
2026-04-24 09:07 43.46201 -115.91269 4497 ft 151 kts 282°
2026-04-24 09:07 43.46551 -115.93370 4961 ft 142 kts 284°
2026-04-24 09:08 43.46729 -115.94699 5259 ft 145 kts 285°
2026-04-24 09:08 43.47140 -115.95972 5490 ft 147 kts 301°
2026-04-24 09:08 43.47651 -115.97204 5834 ft 149 kts 301°
2026-04-24 09:08 43.48155 -115.98452 6271 ft 148 kts 301°
2026-04-24 09:09 43.48637 -115.99689 6663 ft 146 kts 300°
2026-04-24 09:09 43.49053 -116.00885 6790 ft 131 kts 293°
2026-04-24 09:09 43.49422 -116.02254 6557 ft 162 kts 294°
2026-04-24 09:09 43.49862 -116.03629 6760 ft 153 kts 298°
2026-04-24 09:10 43.50317 -116.04988 6529 ft 163 kts 296°
2026-04-24 09:10 43.50765 -116.06380 6458 ft 151 kts 298°
2026-04-24 09:10 43.51261 -116.07625 6249 ft 151 kts 303°
2026-04-24 09:10 43.51785 -116.08905 6012 ft 156 kts 300°
2026-04-24 09:11 43.52232 -116.10263 5830 ft 154 kts 296°
2026-04-24 09:11 43.52629 -116.11607 5634 ft 149 kts 296°
2026-04-24 09:11 43.53049 -116.12920 5329 ft 151 kts 298°
2026-04-24 09:11 43.53500 -116.14249 5003 ft 155 kts 297°
2026-04-24 09:12 43.53997 -116.15548 4684 ft 151 kts 302°
2026-04-24 09:12 43.54452 -116.16867 4167 ft 154 kts 296°
2026-04-24 09:12 43.54932 -116.18208 3622 ft 157 kts 297°
2026-04-24 09:12 43.55387 -116.19526 3239 ft 151 kts 293°
2026-04-24 09:13 43.55815 -116.20813 2928 ft 139 kts 293°
2026-04-24 09:13 43.56188 -116.21911 2878 ft 115 kts 297°
2026-04-24 09:13 43.56416 -116.22544 2879 ft 39 kts 298°
2026-04-24 09:13 43.56526 -116.22867 2881 ft 35 kts 292°
2026-04-24 09:14 43.56613 -116.23137 2880 ft 20 kts 306°
2026-04-24 09:14 43.56686 -116.23176 2879 ft 6 kts 28°
2026-04-24 09:14 43.56748 -116.23127 2879 ft 15 kts 27°
2026-04-24 09:14 43.56870 -116.23050 2878 ft 22 kts 31°
2026-04-24 09:15 43.56897 -116.22957 2879 ft 7 kts 127°
2026-04-24 09:15 43.56861 -116.22865 2879 ft 18 kts 112°
2026-04-24 09:15 43.56787 -116.22644 2879 ft 31 kts 118°
2026-04-24 09:15 43.56695 -116.22376 2879 ft 24 kts 116°